This is the latest recevied weather packets stored in our database for station/object K7DC. If no packets are shown the sender has not sent any weather packets the latest 10 day(s).
| Time | Temp. | Humidity | Pressure | Rain* | Wind** | Luminosity | Snow |
|---|---|---|---|---|---|---|---|
| 1788566199 | 36.67° C | 26% | 1013.7 hPa | 0 mm | - | 158 W/m² | - |
| 1788565899 | 36.67° C | 25% | 1013.4 hPa | 0 mm | - | 172 W/m² | - |
| 1788565594 | 37.22° C | 25% | 1013.5 hPa | 0 mm | - | 190 W/m² | - |
| 1788565290 | 37.22° C | 25% | 1013.4 hPa | 0 mm | - | 208 W/m² | - |
| 1788564986 | 37.78° C | 25% | 1013.7 hPa | 0 mm | - | 229 W/m² | - |
| 1788564681 | 37.78° C | 25% | 1013.3 hPa | 0 mm | - | 253 W/m² | - |
| 1788564378 | 37.78° C | 25% | 1013.8 hPa | 0 mm | - | 282 W/m² | - |
| 1788564074 | 37.78° C | 26% | 1013.4 hPa | 0 mm | - | 296 W/m² | - |
| 1788563769 | 37.78° C | 27% | 1013.9 hPa | 0 mm | - | 315 W/m² | - |
| 1788563469 | 37.78° C | 27% | 1013.5 hPa | 0 mm | - | 340 W/m² | - |
| 1788563168 | 38.33° C | 27% | 1013.5 hPa | 0 mm | - | 374 W/m² | - |
| 1788562864 | 38.33° C | 26% | 1013.5 hPa | 0 mm | - | 415 W/m² | - |
| 1788562561 | 38.33° C | 26% | 1013.7 hPa | 0 mm | - | 484 W/m² | - |
| 1788562256 | 38.33° C | 26% | 1013.5 hPa | 0 mm | - | 511 W/m² | - |
| 1788561951 | 38.33° C | 25% | 1013.5 hPa | 0 mm | - | 554 W/m² | - |
| 1788561646 | 37.22° C | 26% | 1013.7 hPa | 0 mm | - | 557 W/m² | - |
| 1788561345 | 36.67° C | 28% | 1013.7 hPa | 0 mm | - | 560 W/m² | - |
| 1788561041 | 37.22° C | 28% | 1013.9 hPa | 0 mm | - | 165 W/m² | - |
| 1788560736 | 37.78° C | 27% | 1013.8 hPa | 0 mm | - | 183 W/m² | - |
| 1788560432 | 37.22° C | 30% | 1013.7 hPa | 0 mm | - | 297 W/m² | - |
| 1788560127 | 37.78° C | 30% | 1013.9 hPa | 0 mm | - | 717 W/m² | - |
| 1788559827 | 36.67° C | 30% | 1014 hPa | 0 mm | - | 708 W/m² | - |
| 1788559526 | 36.11° C | 31% | 1013.9 hPa | 0 mm | - | 750 W/m² | - |
| 1788559223 | 36.11° C | 31% | 1014.2 hPa | 0 mm | - | 187 W/m² | - |
| 1788558922 | 36.11° C | 31% | 1014.2 hPa | 0 mm | - | 154 W/m² | - |
* Rain latest hour (hover to see other rain measurements)
** Current wind speed in m/s (hover to see current wind gust speed)